Location: Katowice
(50.2611°N, 19.0242°E)
Time: 14:38:46
(UTC+02:00)

A-11 Canister half - Pass Details

Date: 29 July 2019
Orbit: 1526 x 1683 km, 47.3° (Epoch: 18 August)

Event Time Altitude Azimuth Distance (km) Brightness Sun altitude
Rises 21:18:40 0° 257° (WSW) 4,926 12.2 -6.8°
Reaches altitude 10° 21:21:51 10° 256° (WSW) 3,929 11.7 -7.2°
Maximum altitude 21:31:54 75° 174° (S) 1,693 9.1 -8.4°
Drops below altitude 10° 21:41:39 10° 92° (E) 3,824 10.7 -9.5°
Sets 21:44:43 0° 90° (E) 4,788 11.2 -9.9°
